SIA23A KJFK-WSSS

Flight info

Callsign SIA23A
Flight time N/A
Altitude 33000
Route HAPIE DCT YAHOO DCT WHALE N59E NANSO/M085F330 N59E RAFIN DCT 45N050W 47N040W 49N030W 51N020W DCT DINIM DCT ELSOX DCT LESLU/N0488F330 DCT OXLOW/N0487F370 DCT KONAN DCT KOK DCT REMBA DCT MATUG DCT BOMBI DCT TENLO DCT DEXIT DCT PESAT DCT TEGRI DCT UDROS/N0489F390 DCT CRM UM11 TBN UR317 REBLO M11 LUSAL N199 BAKUV N701 LARGI B701 KRS A240 INRAK B449 DOLOS B475 RUBAD A846 RANAH L750 VELDT/N0488F410 L750 ZB G201 BINDO L750 MERUN G452 LKN R460 BBN P646 POXEM M626 IKOGA Y24 PASVA Y514 NUFFA DCT PIBAP DCT PASPU DCT NYLON DCT POSUB DCT SANAT
Aircraft A359/H-SDE2E3GHIJ3J4J5LM1ORWXY/LB1D1

Departure

Time 2026-05-06 08:52
Airport John F. Kennedy International Airport (KJFK)

Arrival

Time N/A
Airport Singapore Changi Airport (WSSS)
Time Latitude Longitude Altitude Speed Heading
2026-05-06 08:05 40.63846 -73.78033 27 ft 0 kts 262°
2026-05-06 08:39 40.63847 -73.78021 26 ft 3 kts 247°
2026-05-06 08:39 40.63854 -73.77995 26 ft 3 kts 251°
2026-05-06 08:39 40.63862 -73.77971 26 ft 3 kts 237°
2026-05-06 08:40 40.63875 -73.77950 26 ft 3 kts 216°
2026-05-06 08:40 40.63893 -73.77937 26 ft 3 kts 188°
2026-05-06 08:40 40.63907 -73.77936 26 ft 0 kts 172°
2026-05-06 08:43 40.63906 -73.77936 26 ft 1 kts 173°
2026-05-06 08:43 40.63870 -73.77930 26 ft 9 kts 173°
2026-05-06 08:44 40.63793 -73.77918 26 ft 14 kts 173°
2026-05-06 08:44 40.63684 -73.77900 26 ft 18 kts 173°
2026-05-06 08:44 40.63598 -73.77881 26 ft 9 kts 150°
2026-05-06 08:44 40.63550 -73.77817 26 ft 9 kts 126°
2026-05-06 08:45 40.63539 -73.77797 26 ft 0 kts 125°
2026-05-06 08:45 40.63533 -73.77783 26 ft 4 kts 119°
2026-05-06 08:45 40.63527 -73.77708 26 ft 8 kts 59°
2026-05-06 08:45 40.63585 -73.77648 26 ft 13 kts 31°
2026-05-06 08:46 40.63672 -73.77579 26 ft 18 kts 30°
2026-05-06 08:46 40.63738 -73.77528 29 ft 20 kts 30°
2026-05-06 08:46 40.63868 -73.77425 29 ft 23 kts 31°
2026-05-06 08:47 40.63987 -73.77330 26 ft 18 kts 31°
2026-05-06 08:47 40.64056 -73.77277 27 ft 20 kts 30°
2026-05-06 08:47 40.64233 -73.77140 27 ft 24 kts 31°
2026-05-06 08:48 40.64324 -73.77068 27 ft 22 kts 31°
2026-05-06 08:48 40.64439 -73.76996 26 ft 17 kts 11°
2026-05-06 08:48 40.64559 -73.76945 26 ft 20 kts 28°
2026-05-06 08:48 40.64591 -73.76922 26 ft 21 kts 30°
2026-05-06 08:49 40.64649 -73.76878 26 ft 22 kts 30°
2026-05-06 08:49 40.64776 -73.76781 27 ft 18 kts 31°
2026-05-06 08:49 40.64807 -73.76756 27 ft 19 kts 31°
2026-05-06 08:49 40.64916 -73.76671 27 ft 19 kts 31°
2026-05-06 08:50 40.65002 -73.76600 27 ft 9 kts 32°
2026-05-06 08:50 40.65066 -73.76550 27 ft 13 kts 31°
2026-05-06 08:50 40.65084 -73.76439 28 ft 15 kts 121°
2026-05-06 08:50 40.65027 -73.76364 28 ft 10 kts 180°
2026-05-06 08:51 40.64897 -73.76455 28 ft 45 kts 211°
2026-05-06 08:51 40.64447 -73.76807 26 ft 104 kts 211°
2026-05-06 08:51 40.63675 -73.77414 27 ft 153 kts 211°
2026-05-06 08:51 40.62662 -73.78221 389 ft 165 kts 211°
2026-05-06 08:52 40.61691 -73.79003 912 ft 171 kts 212°
2026-05-06 08:52 40.60632 -73.79831 1268 ft 187 kts 208°
2026-05-06 08:52 40.59325 -73.80293 1412 ft 206 kts 179°
2026-05-06 08:52 40.57975 -73.79613 1548 ft 221 kts 138°
2026-05-06 08:53 40.57032 -73.77941 1724 ft 236 kts 116°
2026-05-06 08:53 40.56453 -73.75866 1941 ft 248 kts 105°
2026-05-06 08:53 40.55986 -73.73613 2311 ft 255 kts 106°
2026-05-06 08:53 40.55491 -73.71358 2732 ft 262 kts 107°
2026-05-06 08:54 40.54968 -73.69049 3223 ft 263 kts 107°
2026-05-06 08:54 40.54425 -73.66724 3731 ft 270 kts 111°
2026-05-06 08:54 40.53859 -73.64318 4161 ft 279 kts 111°
2026-05-06 08:54 40.53297 -73.61903 4724 ft 278 kts 111°
2026-05-06 08:55 40.52731 -73.59443 5217 ft 280 kts 110°
2026-05-06 08:55 40.52172 -73.56981 5665 ft 283 kts 109°
2026-05-06 08:55 40.51603 -73.54485 6096 ft 287 kts 110°
2026-05-06 08:55 40.51022 -73.51975 6600 ft 288 kts 109°
2026-05-06 08:56 40.50435 -73.49440 7083 ft 291 kts 110°
2026-05-06 08:56 40.49850 -73.46892 7620 ft 293 kts 109°
2026-05-06 08:56 40.49274 -73.44357 8128 ft 293 kts 109°
2026-05-06 08:56 40.48693 -73.41789 8605 ft 294 kts 109°
2026-05-06 08:57 40.48105 -73.39207 9068 ft 294 kts 107°
2026-05-06 08:57 40.47522 -73.36637 9611 ft 293 kts 107°
2026-05-06 08:57 40.46933 -73.34052 10028 ft 296 kts 107°
2026-05-06 08:57 40.46335 -73.31428 10265 ft 306 kts 107°
2026-05-06 08:58 40.45708 -73.28697 10484 ft 320 kts 107°
2026-05-06 08:58 40.45048 -73.25839 10725 ft 333 kts 107°
2026-05-06 08:58 40.44361 -73.22874 10941 ft 343 kts 107°
2026-05-06 08:58 40.43667 -73.19869 11137 ft 354 kts 107°
2026-05-06 08:59 40.42947 -73.16748 11336 ft 361 kts 107°
2026-05-06 08:59 40.42198 -73.13530 11512 ft 367 kts 107°
2026-05-06 08:59 40.41434 -73.10284 11671 ft 377 kts 107°
2026-05-06 08:59 40.40668 -73.06965 11831 ft 384 kts 107°
2026-05-06 09:00 40.39915 -73.03626 11969 ft 390 kts 105°
2026-05-06 09:00 40.39416 -73.00104 12120 ft 400 kts 97°
2026-05-06 09:00 40.39389 -72.96410 12427 ft 408 kts 85°
2026-05-06 09:00 40.39839 -72.92743 12822 ft 409 kts 78°
2026-05-06 09:01 40.40542 -72.89109 13221 ft 414 kts 75°
2026-05-06 09:01 40.41370 -72.85477 13632 ft 415 kts 73°
2026-05-06 09:01 40.42254 -72.81844 13981 ft 419 kts 73°
2026-05-06 09:01 40.43140 -72.78199 14435 ft 420 kts 73°
2026-05-06 09:02 40.44014 -72.74524 14857 ft 421 kts 73°
2026-05-06 09:02 40.44862 -72.70870 15336 ft 424 kts 74°
2026-05-06 09:02 40.45716 -72.67087 15652 ft 430 kts 74°
2026-05-06 09:02 40.46555 -72.63306 16075 ft 433 kts 74°
2026-05-06 09:03 40.47398 -72.59500 16551 ft 434 kts 74°
2026-05-06 09:03 40.48241 -72.55675 16947 ft 437 kts 74°
2026-05-06 09:03 40.49096 -72.51838 17334 ft 439 kts 74°
2026-05-06 09:03 40.49958 -72.47954 17746 ft 444 kts 74°
2026-05-06 09:04 40.50820 -72.44072 18150 ft 445 kts 74°
2026-05-06 09:04 40.51689 -72.40153 18472 ft 447 kts 74°
2026-05-06 09:04 40.52560 -72.36224 18719 ft 450 kts 74°
2026-05-06 09:04 40.53406 -72.32392 19041 ft 455 kts 74°
2026-05-06 09:05 40.54289 -72.28395 19545 ft 456 kts 74°
2026-05-06 09:05 40.55165 -72.24392 19903 ft 454 kts 74°
2026-05-06 09:05 40.56036 -72.20380 20075 ft 458 kts 74°
2026-05-06 09:05 40.56911 -72.16382 20376 ft 461 kts 74°
2026-05-06 09:06 40.57801 -72.12314 20742 ft 463 kts 74°
2026-05-06 09:06 40.58696 -72.08240 21032 ft 465 kts 74°
2026-05-06 09:06 40.59596 -72.04129 21371 ft 468 kts 74°
2026-05-06 09:06 40.60491 -72.00004 21694 ft 469 kts 74°
2026-05-06 09:07 40.61396 -71.95862 21944 ft 473 kts 74°
2026-05-06 09:07 40.62310 -71.91694 22405 ft 474 kts 74°
2026-05-06 09:07 40.63215 -71.87518 22786 ft 475 kts 74°
2026-05-06 09:07 40.64113 -71.83313 23129 ft 478 kts 74°
2026-05-06 09:08 40.65011 -71.79079 23460 ft 480 kts 74°
2026-05-06 09:08 40.65926 -71.74839 23734 ft 483 kts 74°
2026-05-06 09:08 40.66843 -71.70582 24240 ft 482 kts 74°
2026-05-06 09:08 40.67735 -71.66418 24661 ft 482 kts 74°
2026-05-06 09:09 40.68645 -71.62160 25156 ft 482 kts 74°
2026-05-06 09:09 40.69559 -71.57887 25582 ft 485 kts 74°
2026-05-06 09:09 40.70474 -71.53592 25851 ft 492 kts 74°
2026-05-06 09:09 40.71394 -71.49251 26122 ft 492 kts 74°
2026-05-06 09:10 40.72321 -71.44893 26368 ft 491 kts 74°
2026-05-06 09:10 40.73237 -71.40579 26492 ft 490 kts 74°
2026-05-06 09:10 40.74155 -71.36237 26552 ft 493 kts 75°
2026-05-06 09:10 40.75063 -71.31931 26597 ft 492 kts 75°
2026-05-06 09:11 40.75989 -71.27509 26659 ft 499 kts 74°
2026-05-06 09:11 40.76901 -71.23122 26761 ft 504 kts 75°
2026-05-06 09:11 40.77832 -71.18660 27076 ft 505 kts 74°
2026-05-06 09:11 40.78769 -71.14202 27485 ft 502 kts 74°
2026-05-06 09:12 40.79706 -71.09755 27729 ft 504 kts 74°
2026-05-06 09:12 40.80632 -71.05327 28017 ft 504 kts 74°
2026-05-06 09:12 40.81567 -71.00825 28243 ft 507 kts 74°
2026-05-06 09:12 40.82492 -70.96343 28495 ft 505 kts 75°
2026-05-06 09:13 40.83410 -70.91844 28678 ft 508 kts 75°
2026-05-06 09:13 40.84336 -70.87319 28908 ft 511 kts 75°
2026-05-06 09:13 40.85267 -70.82804 29185 ft 511 kts 74°
2026-05-06 09:13 40.86191 -70.78276 29352 ft 511 kts 75°
2026-05-06 09:14 40.87120 -70.73717 29488 ft 514 kts 75°
2026-05-06 09:14 40.88054 -70.69145 29856 ft 516 kts 74°
2026-05-06 09:14 40.88990 -70.64599 30465 ft 508 kts 74°
2026-05-06 09:14 40.89911 -70.60095 30701 ft 509 kts 75°
2026-05-06 09:15 40.90832 -70.55570 30835 ft 510 kts 75°
2026-05-06 09:15 40.91762 -70.51032 31080 ft 510 kts 74°
2026-05-06 09:15 40.92663 -70.46582 31319 ft 511 kts 75°
2026-05-06 09:15 40.93571 -70.42050 31650 ft 508 kts 75°
2026-05-06 09:16 40.94474 -70.37530 31863 ft 507 kts 75°
2026-05-06 09:16 40.96282 -70.28469 32125 ft 509 kts 75°
2026-05-06 09:16 40.97178 -70.24005 32367 ft 509 kts 75°
2026-05-06 09:17 40.98088 -70.19484 32585 ft 507 kts 75°
2026-05-06 09:17 40.98985 -70.14967 32689 ft 506 kts 75°
2026-05-06 09:17 40.99868 -70.10459 32738 ft 507 kts 75°
2026-05-06 09:18 41.01655 -70.01383 32977 ft 510 kts 75°
2026-05-06 09:18 41.03475 -69.92296 33051 ft 510 kts 75°
2026-05-06 09:19 41.05269 -69.83159 33039 ft 511 kts 75°
2026-05-06 09:19 41.07345 -69.74190 33050 ft 507 kts 65°
2026-05-06 09:20 41.10598 -69.65945 33039 ft 509 kts 60°
2026-05-06 09:20 41.14142 -69.57704 33125 ft 511 kts 59°
2026-05-06 09:20 41.15884 -69.53688 33247 ft 509 kts 59°
2026-05-06 09:21 41.17645 -69.49597 33372 ft 511 kts 59°
2026-05-06 09:21 41.19401 -69.45496 33723 ft 510 kts 59°
2026-05-06 09:21 41.21135 -69.41435 34065 ft 505 kts 59°
2026-05-06 09:22 41.24607 -69.33288 34228 ft 508 kts 59°
2026-05-06 09:22 41.26326 -69.29231 34408 ft 505 kts 59°
2026-05-06 09:22 41.28054 -69.25139 34448 ft 505 kts 59°
2026-05-06 09:23 41.31492 -69.16972 34530 ft 508 kts 59°
2026-05-06 09:23 41.33220 -69.12871 34760 ft 506 kts 59°
2026-05-06 09:23 41.34945 -69.08798 35004 ft 505 kts 59°
2026-05-06 09:24 41.38375 -69.00666 35174 ft 502 kts 59°
2026-05-06 09:24 41.40057 -68.96661 35671 ft 491 kts 59°
2026-05-06 09:24 41.41668 -68.92783 36121 ft 481 kts 59°
2026-05-06 09:24 41.43306 -68.88833 36279 ft 481 kts 59°
2026-05-06 09:25 41.44929 -68.84936 36291 ft 483 kts 59°
2026-05-06 09:25 41.48180 -68.77157 36520 ft 479 kts 59°
2026-05-06 09:25 41.49797 -68.73287 36683 ft 477 kts 59°
2026-05-06 09:26 41.51396 -68.69450 36775 ft 474 kts 59°
2026-05-06 09:26 41.53002 -68.65582 36883 ft 471 kts 59°
2026-05-06 09:26 41.54581 -68.61765 36906 ft 469 kts 59°
2026-05-06 09:27 41.57753 -68.54133 36887 ft 470 kts 59°
2026-05-06 09:27 41.59327 -68.50320 36996 ft 468 kts 59°
2026-05-06 09:27 41.60888 -68.46510 37031 ft 468 kts 59°
2026-05-06 09:28 41.64025 -68.38871 37031 ft 468 kts 59°
2026-05-06 09:28 41.67155 -68.31235 37044 ft 472 kts 59°
2026-05-06 09:29 41.70315 -68.23560 37043 ft 471 kts 59°
2026-05-06 09:29 41.73451 -68.15878 37016 ft 470 kts 60°
2026-05-06 09:30 41.76599 -68.08155 37017 ft 473 kts 60°
2026-05-06 09:30 41.79735 -68.00402 37015 ft 472 kts 60°